Header for Extended Forecast Station List Page

Search by: ID | Name | Date | Parm | Value | Avg | % Avg
Sort by: ID | Name | Date | Parm | Value | Avg | % Avg

Enter search or view all records.

Click on id for station plot
#IDNameDateParmValueAvg% Avg
0HWRI1BIG LOST-AT HOWELL RANCH NEAR CHILLY04-20-2015DISCHARGE (KAF)5315934
1MACI1BIG LOST-MACKAY RESERVOIR NEAR MACKAY04-20-2015INFLOW (KAF)4815930
2HALI1BIG WOOD-AT HAILEY04-20-2015DISCHARGE (KAF)12522157
3MAGI1BIG WOOD-MAGIC DAM04-20-2015INFLOW (KAF)7919541
4BITM8BITTERROOT-NEAR MISSOULA04-20-2015DISCHARGE (KAF)838114973
5BONM8BLACKFOOT-NEAR BONNER04-20-2015DISCHARGE (KAF)48876564
6BIGI1BOISE-AT GLENWOOD BRIDGE04-20-2015DISCHARGE (KAF)31743673
7LUCI1BOISE-LUCKY PEAK DAM04-20-2015INFLOW (KAF)904MM
8PARI1BOISE-NEAR PARMA04-20-2015DISCHARGE (KAF)25638866
9HOTI1BRUNEAU-NEAR HOT SPRINGS04-20-2015DISCHARGE (KAF)2915619
10BULO3BULLY CREEK-BULLY CREEK DAM04-20-2015INFLOW (KAF)21157
11BUDW1BUMPING-BUMPING LAKE DAM04-20-2015INFLOW (KAF)4810645
12CHDW1CHELAN-LAKE CHELAN DAM04-20-2015INFLOW (KAF)57196659
13ABOM8CLARK FORK-ABOVE MISSOULA04-20-2015DISCHARGE (KAF)860134464
14DLGM8CLARK FORK-AT DEER LODGE04-20-2015DISCHARGE (KAF)387054
15SRGM8CLARK FORK-AT ST REGIS04-20-2015DISCHARGE (KAF)2247337567
16BELM8CLARK FORK-BELOW MISSOULA04-20-2015DISCHARGE (KAF)1699253567
17CABI1CLARK FORK-CABINET GORGE DAM04-20-2015INFLOW (KAF)6430888272
18NOXM8CLARK FORK-NOXON RAPIDS DAM04-20-2015INFLOW (KAF)5830838770
19DRMM8CLARK FORK-NR DRUMMOND04-20-2015DISCHARGE (KAF)131MM
20CLUW1CLE ELUM-CLE ELUM LAKE04-20-2015INFLOW (KAF)8834825
21ORFI1CLEARWATER-AT OROFINO04-20-2015DISCHARGE (KAF)2728406067
22SPDI1CLEARWATER-AT SPALDING04-20-2015DISCHARGE (KAF)4692603678
23COEI1COEUR D ALENE-COEUR D ALENE LAKE04-20-2015INFLOW (KAF)815202240
24CIBW1COLUMBIA-AT INTL BOUNDARY04-20-2015DISCHARGE (KAF)26937MM
25BONO3COLUMBIA-BONNEVILLE DAM04-20-2015INFLOW (KAF)41626MM
26CHJW1COLUMBIA-CHIEF JOSEPH DAM04-20-2015INFLOW (KAF)253923135781
27GCDW1COLUMBIA-GRAND COULEE DAM04-20-2015INFLOW (KAF)291384167070
28JDAO3COLUMBIA-JOHN DAY DAM04-20-2015INFLOW (KAF)409896347965
29MCDW1COLUMBIA-MCNARY DAM04-20-2015INFLOW (KAF)399346182265
30PRWW1COLUMBIA-PRIEST RAPIDS DAM04-20-2015INFLOW (KAF)284074221967
31RRHW1COLUMBIA-ROCKY REACH DAM04-20-2015INFLOW (KAF)277853451780
32TDAO3COLUMBIA-THE DALLES DAM04-20-2015INFLOW (KAF)410885694872
33WANW1COLUMBIA-WANAPUM DAM04-20-2015INFLOW (KAF)284084136569
34WELW1COLUMBIA-WELLS DAM04-20-2015INFLOW (KAF)270743393580
35DEDI1DEADWOOD-NEAR LOWMAN04-20-2015INFLOW (KAF)6812654
36MODO3DESCHUTES-AT MOODY NR BIGGS04-20-2015DISCHARGE (KAF)1077125786
37ARDW1ENTIAT-NEAR ARDENVOIR04-20-2015DISCHARGE (KAF)11619260
38CHEI1FALL RIVER-NEAR CHESTER04-20-2015DISCHARGE (KAF)17830059
39CFMM8FLATHEAD-AT COLUMBIA FALLS04-20-2015DISCHARGE (KAF)3520397689
40KERM8FLATHEAD-KERR DAM04-20-2015INFLOW (KAF)3937495180
41TRYO3GRANDE RONDE-TROY04-20-2015DISCHARGE (KAF)262101226
42REXI1HENRYS FORK-AT REXBURG04-20-2015DISCHARGE (KAF)35868352
43ANTI1HENRYS FORK-AT ST. ANTHONY04-20-2015DISCHARGE (KAF)30759651
44IPDI1HENRYS FORK-ISLAND PARK DAM04-20-2015INFLOW (KAF)12920762
45HODO3HOOD-NEAR TUCKER BRIDGE04-20-2015DISCHARGE (KAF)10418158
46SERO3JOHN DAY-AT SERVICE CK04-20-2015DISCHARGE (KAF)11558220
47KADW1KACHESS-KACHESS DAM04-20-2015INFLOW (KAF)168919
48LAUW1KETTLE-AT LAURIER04-20-2015DISCHARGE (KAF)1173161373
49PITW1KLICKITAT-NEAR PITT04-20-2015DISCHARGE (KAF)24941061
50BFEI1KOOTENAI-AT BONNERS FERRY04-20-2015STAGE (FT)MMM
51LEOI1KOOTENAI-AT LEONIA04-20-2015DISCHARGE (KAF)4300522082
52LYDM8KOOTENAI-LIBBY DAM04-20-2015INFLOW (KAF)4705576082
53LWRI1LITTLE WOOD-LITTLE WOOD DAM04-20-2015INFLOW (KAF)116716
54BERO3MALHEUR-AGENCY VALLEY DAM04-20-2015INFLOW (KAF)152954
55VALO3MALHEUR-NEAR VALE04-20-2015DISCHARGE (KAF)1422
56WRMO3MALHEUR-WARM SPRINGS DAM04-20-2015INFLOW (KAF)62032
57MYKO3MCKAY CREEK-NEAR PILOT ROCK04-20-2015DISCHARGE (KAF)51142
58PATW1METHOW-NEAR PATEROS04-20-2015DISCHARGE (KAF)59980774
59WGCM8MF FLATHEAD-NEAR WEST GLACIER04-20-2015DISCHARGE (KAF)1114150974
60CLFW1NACHES-NEAR CLIFFDEL04-20-2015DISCHARGE (KAF)13932443
61NACW1NACHES-NEAR NACHES04-20-2015DISCHARGE (KAF)20545545
62DWRI1NF CLEARWATER-DWORSHAK DAM04-20-2015INFLOW (KAF)1327228858
63FCFM8NF FLATHEAD-NEAR COLUMBIA FALLS04-20-2015DISCHARGE (KAF)1111155571
64MONO3NF JOHN DAY-AT MONUMENT04-20-2015DISCHARGE (KAF)7741719
65CSDI1NF PAYETTE-CASCADE DAM04-20-2015INFLOW (KAF)21043348
66TONW1OKANOGAN-NEAR TONASKET04-20-2015DISCHARGE (KAF)1075139377
67OWYO3OWYHEE-BELOW OWYHEE DAM04-20-2015INFLOW (KAF)3220116
68EMMI1PAYETTE-NEAR EMMETT04-20-2015DISCHARGE (KAF)443108941
69ALFW1PEND OREILLE-ALBENI FALLS DAM04-20-2015INFLOW (KAF)72321024971
70HOPI1PEND OREILLE-PEND OREILLE LAKE NR HOPE04-20-2015LAKE ELEVATION (FT)MMM
71PIHI1PORTNEUF-AT POCATELLO04-20-2015DISCHARGE (KAF)176227
72PRTI1PRIEST-NEAR PRIEST RIVER04-20-2015DISCHARGE (KAF)61169788
73RCCM8ROCK CREEK-NEAR CLINTON04-20-2015DISCHARGE (KAF)20625282
74WHBI1SALMON-AT WHITEBIRD04-20-2015DISCHARGE (KAF)3335545761
75ARAI1SF BOISE-ANDERSON RANCH DAM04-20-2015INFLOW (KAF)22445349
76HHWM8SF FLATHEAD-HUNGRY HORSE DAM04-20-2015INFLOW (KAF)1453181580
77PLDI1SF SNAKE-PALISADES DAM04-20-2015INFLOW (KAF)2444296482
78SIFI1SNAKE-AB EAGLE ROCK NR IDAHO FALLS04-20-2015DISCHARGE (KAF)1997244882
79AFRI1SNAKE-AMERICAN FALLS RESERVOIR04-20-2015INFLOW (KAF)1531222569
80SNAI1SNAKE-AT BLACKFOOT04-20-2015DISCHARGE (KAF)1107172364
81MILI1SNAKE-AT MILNER04-20-2015DISCHARGE (KAF)23226189
82WEII1SNAKE-AT WEISER04-20-2015DISCHARGE (KAF)2417424857
83SWAI1SNAKE-BELOW SWAN FALLS04-20-2015DISCHARGE (KAF)1546217471
84BRNI1SNAKE-BROWNLEE DAM04-20-2015INFLOW (KAF)2685456259
85IHDW1SNAKE-ICE HARBOR DAM04-20-2015INFLOW (KAF)111111790762
86JLKW4SNAKE-JACKSON LAKE AT DAM04-20-2015INFLOW (KAF)51075568
87LGSW1SNAKE-LITTLE GOOSE DAM04-20-2015INFLOW (KAF)110771796862
88LGDW1SNAKE-LOWER GRANITE DAM04-20-2015INFLOW (KAF)110911795162
89LMNW1SNAKE-LOWER MONUMENTAL DAM04-20-2015INFLOW (KAF)111081801162
90ALPW4SNAKE-NEAR ALPINE04-20-2015DISCHARGE (KAF)1849208589
91ANAW1SNAKE-NEAR ANATONE04-20-2015DISCHARGE (KAF)64061185454
92BFTI1SNAKE-NEAR BLACKFOOT04-20-2015DISCHARGE (KAF)1060160866
93HEII1SNAKE-NEAR HEISE04-20-2015DISCHARGE (KAF)31673084103
94JKSW4SNAKE-NEAR JACKSON04-20-2015DISCHARGE (KAF)1531162294
95SHYI1SNAKE-NEAR SHELLEY04-20-2015DISCHARGE (KAF)1714222677
96LLKW1SPOKANE-AT LONGLAKE04-20-2015INFLOW (KAF)994251340
97SPOW1SPOKANE-AT SPOKANE04-20-2015DISCHARGE (KAF)827MM
98SJMI1ST JOE-AT ST MARIES04-20-2015STAGE (FT)MMM
99SATI1ST MARIES-NEAR SANTA04-20-2015DISCHARGE (KAF)349835
100STRM8ST. REGIS-NEAR ST. REGIS04-20-2015DISCHARGE (KAF)8822040
101TNAW1TEANAWAY-BELOW FORKS04-20-2015DISCHARGE (KAF)138715
102TEAI1TETON-NEAR ST. ANTHONY04-20-2015DISCHARGE (KAF)28833985
103RILW1TIETON-RIMROCK LAKE NEAR RIMROCK04-20-2015INFLOW (KAF)9618153
104PDTO3UMATILLA-AT PENDLETON04-20-2015DISCHARGE (KAF)308734
105GIBO3UMATILLA-NEAR GIBBON04-20-2015DISCHARGE (KAF)164932
106UMAO3UMATILLA-NEAR UMATILLA04-20-2015DISCHARGE (KAF)214251
107TCHW1WALLA WALLA-NEAR TOUCHET04-20-2015DISCHARGE (KAF)317243
108WSRI1WEISER-NEAR WEISER04-20-2015DISCHARGE (KAF)8928731
109PESW1WENATCHEE-AT PESHASTIN04-20-2015DISCHARGE (KAF)611134246
110UNDW1WHITE SALMON-NEAR UNDERWOOD04-20-2015DISCHARGE (KAF)17527963
111RIDI1WILLOW CREEK-RIRIE DAM04-20-2015INFLOW (KAF)143541
112EASW1YAKIMA-AT EASTON04-20-2015DISCHARGE (KAF)779085
113KIOW1YAKIMA-AT KIONA04-20-2015DISCHARGE (KAF)36972551
114UMTW1YAKIMA-AT UMTANUM04-20-2015DISCHARGE (KAF)56479971
115KEDW1YAKIMA-KEECHELUS LAKE04-20-2015INFLOW (KAF)269627
116PARW1YAKIMA-NEAR PARKER04-20-2015DISCHARGE (KAF)13038234